Molonglo, Australia

6:44 AM AEDT on January 21, 2018 (GMT +1100)
Molonglo

Weather History for 94926 - August, 2013

Change the Weather History Date:

Friday, August 2, 2013

  Actual Average Record
Temperature  
Mean Temperature 44 °F -  
Max Temperature 59 °F 55 °F - ()
Min Temperature 29 °F 34 °F - ()
Degree Days  
Heating Degree Days 21    
Moisture  
Dew Point 35 °F    
Average Humidity 72    
Maximum Humidity 100    
Minimum Humidity 27    
Precipitation  
Precipitation 0.00 in 0.07 in - ()
Sea Level Pressure  
Sea Level Pressure 29.97 in    
Wind  
Wind Speed 7 mph ()    
Max Wind Speed 24 mph    
Max Gust Speed 34 mph    
Visibility 5.5 miles    
Events Rain    
T = Trace of Precipitation, MM = Missing Value Source: Averaged Metar Reports

Daily Weather History Graph

Daily Weather History Graph

Search for Another Location

Airport or City:

Trip Planner

Search our weather history database for the weather conditions in past years. The results will help you decide how hot, cold, wet, or windy it might be!

Date:

Astronomy

Aug. 02, 2013 Rise Set
Actual Time 6:57 AM AEST 5:21 PM AEST
Civil Twilight 6:30 AM AEST 5:48 PM AEST
Nautical Twilight 6:00 AM AEST 6:19 PM AEST
Astronomical Twilight 5:30 AM AEST 6:49 PM AEST
Moon 3:06 AM AEST (8/2) 1:26 PM AEST (8/2)
Length of Visible Light 11h 17m
Length of Day
10h 23m
Waning Crescent, 20% of the Moon is Illuminated
Aug 2
Waning Crescent
Aug 7
New
Aug 14
First Quarter
Aug 21
Full
Aug 28
Last Quarter

Hourly Weather History & Observations

Time (AEST) Temp. Windchill Dew Point Humidity Pressure Visibility Wind Dir Wind Speed Gust Speed Precip Events Conditions
12:00 AM 33 °F - 32 °F 93% 30.14 in - Calm Calm - -  
12:00 AM 33.8 °F - 32.0 °F 93% 30.09 in 6.2 mi Calm Calm - N/A   Unknown
12:32 AM 33.8 °F - 32.0 °F 93% 30.09 in - Calm Calm - N/A   Scattered Clouds
12:36 AM 33.8 °F - 33.8 °F 100% 30.09 in 0.6 mi Calm Calm - N/A   Scattered Clouds
12:57 AM 32.0 °F - 32.0 °F 100% 30.09 in 6.2 mi Calm Calm - N/A   Scattered Clouds
1:00 AM 32 °F - 32 °F 98% 30.12 in - Calm Calm - -  
1:00 AM 32.0 °F - 32.0 °F 100% 30.09 in 0.7 mi Calm Calm - N/A   Unknown
1:30 AM 32.0 °F - 32.0 °F 100% 30.06 in 0.2 mi Calm Calm - N/A   Scattered Clouds
2:00 AM 30.2 °F - 30.2 °F 100% 30.06 in 0.2 mi Calm Calm - N/A   Scattered Clouds
2:11 AM 30.2 °F - 30.2 °F 100% 30.06 in 0.7 mi Calm Calm - N/A   Scattered Clouds
2:18 AM 30.2 °F - 30.2 °F 100% 30.06 in 0.7 mi Calm Calm - N/A   Scattered Clouds
2:30 AM 30.2 °F - 30.2 °F 100% 30.06 in 0.7 mi Calm Calm - N/A   Mostly Cloudy
2:49 AM 32.0 °F - 32.0 °F 100% 30.06 in 6.2 mi Calm Calm - N/A   Overcast
2:53 AM 32.0 °F - 32.0 °F 100% 30.06 in 6.2 mi Calm Calm - N/A   Overcast
3:00 AM 32 °F - 32 °F 100% 30.08 in - ENE 2.3 mph - -   Overcast
3:00 AM 32.0 °F - 32.0 °F 100% 30.04 in 6.2 mi NE 2.3 mph - N/A   Overcast
3:30 AM 33.8 °F - 32.0 °F 93% 30.04 in 6.2 mi Calm Calm - N/A   Overcast
4:00 AM 33 °F - 32 °F 96% 30.06 in - SSW 4.6 mph - -  
4:00 AM 32.0 °F 27.5 °F 32.0 °F 100% 30.04 in 6.2 mi SSW 4.6 mph - N/A   Overcast
4:30 AM 33.8 °F - 33.8 °F 100% 30.04 in 6.2 mi South 1.2 mph - N/A   Overcast
5:00 AM 33.8 °F - 33.8 °F 100% 30.04 in 6.2 mi Calm Calm - N/A   Mostly Cloudy
5:30 AM 33.8 °F - 33.8 °F 100% 30.01 in 6.2 mi Calm Calm - N/A   Mostly Cloudy
6:00 AM 34 °F - 34 °F 99% 30.06 in - South 3.5 mph - -  
6:00 AM 33.8 °F 30.8 °F 33.8 °F 100% 30.01 in 6.2 mi South 3.5 mph - N/A   Mostly Cloudy
6:30 AM 33.8 °F 29.6 °F 33.8 °F 100% 30.01 in 6.2 mi South 4.6 mph - N/A   Mostly Cloudy
7:00 AM 35.6 °F 31.7 °F 35.6 °F 100% 30.01 in 6.2 mi NW 4.6 mph - N/A   Scattered Clouds
7:30 AM 39.2 °F 33.6 °F 39.2 °F 100% 30.04 in 6.2 mi WNW 8.1 mph - N/A   Scattered Clouds
8:00 AM 44.6 °F 42.2 °F 39.2 °F 81% 30.01 in 6.2 mi NNW 4.6 mph - N/A   Scattered Clouds
8:30 AM 48.2 °F - 37.4 °F 66% 30.01 in 6.2 mi NNW 2.3 mph - N/A   Partly Cloudy
9:00 AM 50 °F - 39 °F 56% 30.05 in - NW 6.9 mph - -  
9:00 AM 50.0 °F - 39.2 °F 66% 30.01 in 6.2 mi NW 6.9 mph - N/A   Scattered Clouds
9:30 AM 51.8 °F - 37.4 °F 58% 30.01 in 6.2 mi NW 10.4 mph - N/A   Scattered Clouds
10:00 AM 53 °F - 37 °F 43% 30.03 in - NNW 13.8 mph - -  
10:00 AM 53.6 °F - 37.4 °F 54% 30.01 in 6.2 mi NNW 13.8 mph - N/A   Scattered Clouds
10:30 AM 55.4 °F - 37.4 °F 51% 29.98 in 6.2 mi NW 16.1 mph - N/A   Scattered Clouds
11:00 AM 55.4 °F - 37.4 °F 51% 29.98 in 6.2 mi NW 20.7 mph - N/A   Scattered Clouds
11:30 AM 57.2 °F - 37.4 °F 48% 29.98 in 6.2 mi NW 20.7 mph - N/A   Scattered Clouds
11:57 AM 55.4 °F - 37.4 °F 51% 29.95 in 6.2 mi NW 18.4 mph 29.9 mph N/A   Mostly Cloudy
12:00 PM 55 °F - 38 °F 41% 29.99 in - NW 20.7 mph - -  
12:00 PM 55.4 °F - 37.4 °F 51% 29.95 in 6.2 mi NW 20.7 mph 32.2 mph N/A   Mostly Cloudy
12:30 PM 59.0 °F - 39.2 °F 48% 29.92 in 6.2 mi NW 23.0 mph - N/A   Mostly Cloudy
1:00 PM 59 °F - 34 °F 27% 29.94 in - NW 21.9 mph - -  
1:02 PM 59.0 °F - 35.6 °F 42% 29.89 in 6.2 mi NW 21.9 mph 33.4 mph N/A   Mostly Cloudy
1:30 PM 55.4 °F - 35.6 °F 47% 29.89 in 6.2 mi WNW 19.6 mph - N/A   Mostly Cloudy
1:45 PM 55.4 °F - 33.8 °F 44% 29.89 in 6.2 mi WNW 20.7 mph 33.4 mph N/A   Mostly Cloudy
2:00 PM 55.4 °F - 35.6 °F 47% 29.89 in 6.2 mi NW 21.9 mph - N/A   Mostly Cloudy
2:06 PM 55.4 °F - 35.6 °F 47% 29.89 in 6.2 mi NW 20.7 mph 32.2 mph N/A   Mostly Cloudy
2:31 PM 55.4 °F - 35.6 °F 47% 29.89 in 6.2 mi WNW 21.9 mph 33.4 mph N/A   Mostly Cloudy
3:00 PM 54 °F - 37 °F 40% 29.92 in - NW 23.0 mph - -   Overcast
3:00 PM 55.4 °F - 37.4 °F 51% 29.89 in 6.2 mi NW 23.0 mph - N/A   Mostly Cloudy
3:08 PM 53.6 °F - 37.4 °F 54% 29.89 in 6.2 mi NW 21.9 mph 34.5 mph N/A   Mostly Cloudy
3:30 PM 53.6 °F - 39.2 °F 58% 29.89 in 6.2 mi NW 21.9 mph - N/A   Scattered Clouds
3:46 PM 53.6 °F - 37.4 °F 54% 29.89 in 6.2 mi WNW 20.7 mph 33.4 mph N/A   Scattered Clouds
4:00 PM 53 °F - 37 °F 44% 29.92 in - WNW 21.9 mph - -  
4:00 PM 53.6 °F - 37.4 °F 54% 29.89 in 6.2 mi WNW 21.9 mph - N/A   Scattered Clouds
4:26 PM 53.6 °F - 33.8 °F 47% 29.89 in 6.2 mi NW 24.2 mph - N/A   Scattered Clouds
4:30 PM 51.8 °F - 33.8 °F 50% 29.89 in 6.2 mi NW 24.2 mph - N/A   Scattered Clouds
5:00 PM 51.8 °F - 35.6 °F 54% 29.89 in 6.2 mi NW 17.3 mph - N/A   Partly Cloudy
5:30 PM 48.2 °F - 35.6 °F 62% 29.89 in 6.2 mi WNW 15.0 mph - N/A   Partly Cloudy
6:00 PM 49 °F - 37 °F 53% 29.91 in - NW 19.6 mph - -  
6:00 PM 48.2 °F - 37.4 °F 66% 29.89 in 6.2 mi NW 19.6 mph - N/A   Scattered Clouds
6:30 PM 48.2 °F - 37.4 °F 66% 29.89 in 6.2 mi NW 12.7 mph - N/A   Scattered Clouds
7:00 PM 47 °F - 36 °F 56% 29.93 in - NW 17.3 mph - -  
7:00 PM 48.2 °F - 35.6 °F 62% 29.89 in 6.2 mi NW 17.3 mph - N/A   Scattered Clouds
7:30 PM 48.2 °F - 37.4 °F 66% 29.89 in 6.2 mi North 12.7 mph - N/A   Mostly Cloudy
8:00 PM 48.2 °F - 37.4 °F 66% 29.92 in 6.2 mi NNW 12.7 mph - N/A   Mostly Cloudy
8:30 PM 48.2 °F - 37.4 °F 66% 29.89 in 6.2 mi North 13.8 mph - N/A   Mostly Cloudy
9:00 PM 47 °F - 39 °F 67% 29.95 in - NW 17.3 mph - -   Overcast
9:00 PM 46.4 °F 39.5 °F 39.2 °F 76% 29.92 in 6.2 mi NW 17.3 mph - N/A   Drizzle
9:30 PM 46.4 °F 39.5 °F 39.2 °F 76% 29.89 in 6.2 mi NNW 17.3 mph - N/A   Overcast
10:00 PM 46 °F - 40 °F 71% 29.94 in - NW 18.4 mph - -  
10:00 PM 46.4 °F 39.2 °F 39.2 °F 76% 29.92 in 6.2 mi NW 18.4 mph - N/A Rain Light Rain Showers
10:30 PM 46.4 °F 39.8 °F 39.2 °F 76% 29.89 in 6.2 mi NW 16.1 mph - N/A   Mostly Cloudy
11:00 PM 46.4 °F 39.5 °F 35.6 °F 66% 29.89 in 6.2 mi WNW 17.3 mph - N/A   Mostly Cloudy
11:30 PM 46.4 °F 39.0 °F 35.6 °F 66% 29.89 in 6.2 mi WNW 19.6 mph - N/A   Unknown